Oconto, WI

7:09 AM CST on December 08, 2019 (GMT -0600)
Oconto Municipal

Weather History for KOCQ - October, 2019

Change the Weather History Date:

Tuesday, October 29, 2019

  Actual Average Record
Temperature  
Mean Temperature 34 °F -  
Max Temperature 41 °F 52 °F 59 °F (2016)
Min Temperature 27 °F 31 °F 22 °F (2017)
Degree Days  
Heating Degree Days 31    
Moisture  
Dew Point 28 °F    
Average Humidity 80    
Maximum Humidity 99    
Minimum Humidity 52    
Precipitation  
Precipitation 0.02 in - - ()
Sea Level Pressure  
Sea Level Pressure 30.17 in    
Wind  
Wind Speed 4 mph (WNW)    
Max Wind Speed 12 mph    
Max Gust Speed -    
Visibility 9 miles    
Events      
Averages and records for this station are not official NWS values.
T = Trace of Precipitation, MM = Missing Value Source: NWS Daily Summary

Daily Weather History Graph

Daily Weather History Graph

Search for Another Location

Airport or City:

Astronomy

Oct. 29, 2019 Rise Set
Actual Time 7:25 AM CDT 5:44 PM CDT
Civil Twilight 6:55 AM CDT 6:14 PM CDT
Nautical Twilight 6:20 AM CDT 6:49 PM CDT
Astronomical Twilight 5:46 AM CDT 7:23 PM CDT
Moon 9:01 AM CDT (10/29) 7:05 PM CDT (10/29)
Length of Visible Light 11h 19m
Length of Day
10h 19m
Waxing Crescent, 3% of the Moon is Illuminated
Oct 29
Waxing Crescent
Nov 4
First Quarter
Nov 12
Full
Nov 19
Last Quarter
Nov 26
New

Hourly Weather History & Observations

Time (CDT) Temp. Windchill Dew Point Humidity Pressure Visibility Wind Dir Wind Speed Gust Speed Precip Events Conditions
12:15 AM 37.4 °F 29.8 °F 25.7 °F 63% 30.07 in 10.0 mi WNW 11.5 mph - N/A   Overcast
12:35 AM 34.7 °F 30.6 °F 29.3 °F 81% 30.08 in 7.0 mi NW 4.6 mph - N/A   Overcast
12:55 AM 33.3 °F - 30.9 °F 91% 30.06 in 4.0 mi Calm Calm - N/A   Overcast
1:35 AM 32.0 °F 26.4 °F 31.6 °F 99% 30.08 in 1.8 mi West 5.8 mph - N/A   Overcast
1:55 AM 32.0 °F 27.5 °F 31.6 °F 99% 30.09 in 1.2 mi WSW 4.6 mph - N/A   Overcast
2:15 AM 32.0 °F 27.5 °F 31.6 °F 99% 30.08 in 1.0 mi West 4.6 mph - 0.01 in   Overcast
2:35 AM 32.0 °F 28.7 °F 31.8 °F 99% 30.09 in 2.0 mi West 3.5 mph - 0.02 in   Overcast
2:55 AM 32.0 °F 27.5 °F 31.6 °F 99% 30.09 in 2.0 mi West 4.6 mph - 0.02 in   Overcast
3:15 AM 32.0 °F 27.5 °F 31.8 °F 99% 30.08 in 2.5 mi West 4.6 mph - N/A   Overcast
3:35 AM 32.0 °F 28.7 °F 31.6 °F 99% 30.08 in 4.0 mi WNW 3.5 mph - N/A   Overcast
3:55 AM 32.0 °F 28.7 °F 31.6 °F 99% 30.08 in 3.0 mi West 3.5 mph - N/A   Overcast
4:15 AM 32.0 °F 27.5 °F 31.8 °F 99% 30.08 in 3.0 mi West 4.6 mph - N/A   Overcast
4:35 AM 32.0 °F 28.7 °F 31.6 °F 99% 30.07 in 4.0 mi WNW 3.5 mph - N/A   Overcast
4:55 AM 32.0 °F 28.7 °F 31.5 °F 98% 30.08 in 7.0 mi West 3.5 mph - N/A   Overcast
5:15 AM 32.0 °F 28.7 °F 31.1 °F 96% 30.08 in 7.0 mi WNW 3.5 mph - N/A   Overcast
5:35 AM 32.0 °F 28.7 °F 31.1 °F 96% 30.09 in 10.0 mi WNW 3.5 mph - N/A   Overcast
6:15 AM 32.0 °F 28.7 °F 31.1 °F 96% 30.11 in 10.0 mi NW 3.5 mph - N/A   Overcast
6:35 AM 32.0 °F 28.7 °F 30.9 °F 96% 30.11 in 10.0 mi NNW 3.5 mph - N/A   Overcast
6:55 AM 32.0 °F 27.5 °F 30.6 °F 94% 30.11 in 10.0 mi NNW 4.6 mph - N/A   Overcast
7:15 AM 32.0 °F - 30.2 °F 93% 30.12 in 10.0 mi Calm Calm - N/A   Overcast
7:35 AM 32.0 °F 28.7 °F 30.0 °F 92% 30.12 in 10.0 mi NNW 3.5 mph - N/A   Overcast
7:55 AM 32.0 °F - 30.2 °F 93% 30.13 in 10.0 mi Calm Calm - N/A   Overcast
8:15 AM 31.6 °F - 30.2 °F 94% 30.14 in 10.0 mi Calm Calm - N/A   Overcast
8:35 AM 32.0 °F 28.7 °F 30.4 °F 94% 30.14 in 10.0 mi NW 3.5 mph - N/A   Scattered Clouds
8:55 AM 32.2 °F 26.7 °F 30.0 °F 92% 30.14 in 10.0 mi NNW 5.8 mph - N/A   Clear
9:15 AM 32.9 °F 27.5 °F 30.2 °F 90% 30.14 in 10.0 mi NNW 5.8 mph - N/A   Clear
9:35 AM 33.4 °F 28.1 °F 29.8 °F 87% 30.15 in 10.0 mi NNW 5.8 mph - N/A   Clear
9:55 AM 34.0 °F - 30.0 °F 85% 30.16 in 10.0 mi Calm Calm - N/A   Scattered Clouds
10:15 AM 34.7 °F 29.6 °F 29.3 °F 81% 30.15 in 10.0 mi NW 5.8 mph - N/A   Scattered Clouds
10:35 AM 35.2 °F 31.2 °F 29.7 °F 80% 30.15 in 10.0 mi NW 4.6 mph - N/A   Scattered Clouds
10:55 AM 35.8 °F 30.9 °F 29.1 °F 77% 30.16 in 10.0 mi NNW 5.8 mph - N/A   Mostly Cloudy
11:15 AM 37.2 °F 34.7 °F 29.7 °F 74% 30.17 in 10.0 mi NNW 3.5 mph - N/A   Scattered Clouds
11:35 AM 36.7 °F 34.1 °F 28.4 °F 72% 30.19 in 10.0 mi WNW 3.5 mph - N/A   Scattered Clouds
11:55 AM 38.7 °F 34.3 °F 29.5 °F 70% 30.20 in 10.0 mi West 5.8 mph - N/A   Mostly Cloudy
12:15 PM 37.8 °F 35.3 °F 27.9 °F 67% 30.19 in 10.0 mi SW 3.5 mph - N/A   Mostly Cloudy
12:35 PM 38.7 °F 36.3 °F 27.5 °F 64% 30.19 in 10.0 mi WNW 3.5 mph - N/A   Mostly Cloudy
12:55 PM 38.5 °F 35.0 °F 25.9 °F 61% 30.19 in 10.0 mi NW 4.6 mph - N/A   Overcast
1:15 PM 38.8 °F 34.6 °F 27.5 °F 64% 30.19 in 10.0 mi WNW 5.8 mph - N/A   Overcast
1:35 PM 38.5 °F 33.4 °F 27.9 °F 66% 30.19 in 10.0 mi WNW 6.9 mph - N/A   Overcast
1:55 PM 40.5 °F 35.1 °F 27.0 °F 59% 30.18 in 10.0 mi NW 8.1 mph - N/A   Overcast
2:15 PM 41.5 °F 36.4 °F 26.1 °F 54% 30.18 in 10.0 mi WNW 8.1 mph - N/A   Mostly Cloudy
2:35 PM 39.6 °F 36.3 °F 25.7 °F 58% 30.18 in 10.0 mi NW 4.6 mph - N/A   Scattered Clouds
2:55 PM 39.9 °F 36.7 °F 25.7 °F 57% 30.18 in 10.0 mi West 4.6 mph - N/A   Clear
3:15 PM 41.2 °F 37.3 °F 25.7 °F 54% 30.19 in 10.0 mi West 5.8 mph - N/A   Scattered Clouds
3:35 PM 41.0 °F 39.0 °F 25.2 °F 53% 30.19 in 10.0 mi WNW 3.5 mph - N/A   Scattered Clouds
3:55 PM 41.4 °F 36.8 °F 25.2 °F 53% 30.20 in 10.0 mi West 6.9 mph - N/A   Scattered Clouds
4:15 PM 41.5 °F 39.6 °F 25.3 °F 53% 30.20 in 10.0 mi West 3.5 mph - N/A   Clear
4:35 PM 41.2 °F 39.2 °F 25.3 °F 53% 30.20 in 10.0 mi WSW 3.5 mph - N/A   Clear
4:55 PM 41.0 °F 38.0 °F 24.4 °F 52% 30.20 in 10.0 mi West 4.6 mph - N/A   Clear
5:15 PM 40.3 °F - 24.1 °F 52% 30.20 in 10.0 mi Calm Calm - N/A   Clear
5:35 PM 39.4 °F - 23.9 °F 54% 30.21 in 10.0 mi Calm Calm - N/A   Clear
5:55 PM 37.9 °F - 24.1 °F 57% 30.21 in 10.0 mi Calm Calm - N/A   Clear
6:15 PM 33.4 °F - 25.2 °F 72% 30.22 in 10.0 mi Calm Calm - N/A   Clear
6:35 PM 31.5 °F - 25.9 °F 80% 30.22 in 10.0 mi Calm Calm - N/A   Clear
6:55 PM 30.2 °F - 26.4 °F 86% 30.23 in 10.0 mi Calm Calm - N/A   Clear
7:15 PM 29.5 °F - 25.9 °F 86% 30.23 in 10.0 mi Calm Calm - N/A   Clear
7:35 PM 30.0 °F - 26.8 °F 88% 30.24 in 10.0 mi Calm Calm - N/A   Clear
7:55 PM 28.9 °F - 26.1 °F 89% 30.24 in 10.0 mi Calm Calm - N/A   Clear
8:15 PM 29.5 °F - 26.1 °F 87% 30.25 in 10.0 mi Calm Calm - N/A   Clear
8:55 PM 28.4 °F - 26.1 °F 91% 30.25 in 10.0 mi Calm Calm - N/A   Clear
9:15 PM 27.7 °F 23.8 °F 24.8 °F 89% 30.26 in 10.0 mi West 3.5 mph - N/A   Clear
9:35 PM 30.2 °F 25.4 °F 25.0 °F 81% 30.26 in 10.0 mi West 4.6 mph - N/A   Clear
9:55 PM 29.3 °F 25.6 °F 23.4 °F 78% 30.27 in 10.0 mi WSW 3.5 mph - N/A   Clear
10:15 PM 28.8 °F 25.0 °F 23.9 °F 82% 30.28 in 10.0 mi WSW 3.5 mph - N/A   Clear
10:35 PM 28.6 °F 24.8 °F 24.4 °F 84% 30.29 in 10.0 mi WSW 3.5 mph - N/A   Clear
10:55 PM 28.2 °F 24.4 °F 23.9 °F 84% 30.29 in 10.0 mi West 3.5 mph - N/A   Clear
11:15 PM 28.2 °F - 24.8 °F 87% 30.29 in 10.0 mi Calm Calm - N/A   Clear
11:35 PM 28.9 °F - 24.1 °F 82% 30.29 in 10.0 mi Calm Calm - N/A   Clear
11:55 PM 28.0 °F - 25.0 °F 88% 30.29 in 10.0 mi Calm Calm - N/A   Clear